TimeCST,TemperatureF,Dew PointF,Humidity,Sea Level PressureIn,VisibilityMPH,Wind Direction,Wind SpeedMPH,Gust SpeedMPH,PrecipitationIn,Events,Conditions,WindDirDegrees,DateUTC
12:43 AM,51.8,50.0,94,30.23,10.0,Calm,Calm,-,N/A,,Scattered Clouds,0,2012-12-03 06:43:00
12:53 AM,51.1,48.9,92,30.22,3.0,Calm,Calm,-,N/A,,Mostly Cloudy,0,2012-12-03 06:53:00
1:29 AM,51.8,48.2,88,30.23,2.5,Calm,Calm,-,N/A,,Scattered Clouds,0,2012-12-03 07:29:00
1:36 AM,51.8,48.2,88,30.23,7.0,Calm,Calm,-,N/A,,Scattered Clouds,0,2012-12-03 07:36:00
1:51 AM,51.8,48.2,88,30.23,10.0,Calm,Calm,-,N/A,,Mostly Cloudy,0,2012-12-03 07:51:00
1:53 AM,51.1,48.9,92,30.23,10.0,Calm,Calm,-,N/A,,Mostly Cloudy,0,2012-12-03 07:53:00
2:32 AM,50.0,48.2,94,30.22,1.8,Calm,Calm,-,N/A,,Overcast,0,2012-12-03 08:32:00
2:45 AM,50.0,48.2,94,30.22,0.2,Calm,Calm,-,N/A,Fog,Fog,0,2012-12-03 08:45:00
2:53 AM,50.0,48.9,96,30.22,0.2,Calm,Calm,-,N/A,Fog,Fog,0,2012-12-03 08:53:00
3:53 AM,50.0,48.9,96,30.22,0.2,Calm,Calm,-,N/A,Fog,Fog,0,2012-12-03 09:53:00
4:20 AM,51.8,50.0,94,30.23,1.2,Calm,Calm,-,0.01,,Overcast,0,2012-12-03 10:20:00
4:29 AM,51.8,50.0,94,30.23,0.2,Calm,Calm,-,0.01,Fog,Fog,0,2012-12-03 10:29:00
4:53 AM,52.0,51.1,97,30.23,0.2,Calm,Calm,-,0.01,Fog,Fog,0,2012-12-03 10:53:00
5:01 AM,51.8,51.8,100,30.23,0.5,Calm,Calm,-,N/A,Fog,Fog,0,2012-12-03 11:01:00
5:09 AM,51.8,51.8,100,30.23,0.2,Calm,Calm,-,N/A,Fog,Fog,0,2012-12-03 11:09:00
5:53 AM,52.0,51.1,97,30.24,0.2,Calm,Calm,-,N/A,Fog,Fog,0,2012-12-03 11:53:00
6:53 AM,52.0,51.1,97,30.25,0.2,Calm,Calm,-,N/A,Fog,Fog,0,2012-12-03 12:53:00
7:53 AM,54.0,52.0,93,30.26,0.2,Calm,Calm,-,N/A,Fog,Fog,0,2012-12-03 13:53:00
9:30 AM,60.8,57.2,88,30.27,0.8,Calm,Calm,-,N/A,,Mist,0,2012-12-03 15:30:00
9:41 AM,60.8,60.8,100,30.27,2.0,East,3.5,-,N/A,,Overcast,90,2012-12-03 15:41:00
9:49 AM,62.6,60.8,94,30.27,8.0,Calm,Calm,-,N/A,,Mostly Cloudy,0,2012-12-03 15:49:00
11:53 AM,75.0,59.0,57,30.20,10.0,SSE,8.1,19.6,N/A,,Scattered Clouds,150,2012-12-03 17:53:00
12:53 PM,77.0,57.0,50,30.19,10.0,South,9.2,20.7,N/A,,Scattered Clouds,180,2012-12-03 18:53:00
1:53 PM,77.0,55.9,48,30.16,10.0,SSE,10.4,18.4,N/A,,Scattered Clouds,150,2012-12-03 19:53:00
2:53 PM,75.9,57.0,52,30.16,10.0,SE,9.2,-,N/A,,Mostly Cloudy,140,2012-12-03 20:53:00
3:53 PM,75.0,57.9,55,30.17,10.0,South,9.2,-,N/A,,Mostly Cloudy,180,2012-12-03 21:53:00
4:53 PM,71.1,59.0,66,30.17,10.0,South,5.8,-,N/A,,Scattered Clouds,170,2012-12-03 22:53:00
5:53 PM,68.0,59.0,73,30.19,10.0,South,3.5,-,N/A,,Clear,170,2012-12-03 23:53:00
6:53 PM,64.9,59.0,81,30.19,10.0,SE,4.6,-,N/A,,Mostly Cloudy,130,2012-12-04 00:53:00
7:53 PM,64.0,60.1,87,30.19,10.0,SSE,5.8,-,N/A,,Clear,150,2012-12-04 01:53:00
8:53 PM,64.0,60.1,87,30.19,10.0,SE,5.8,-,N/A,,Clear,130,2012-12-04 02:53:00
9:53 PM,63.0,60.1,90,30.20,10.0,South,4.6,-,N/A,,Clear,170,2012-12-04 03:53:00
10:23 PM,62.6,60.8,94,30.20,10.0,SSE,3.5,-,N/A,,Mostly Cloudy,150,2012-12-04 04:23:00
10:53 PM,64.9,63.0,93,30.20,10.0,South,5.8,-,N/A,,Overcast,170,2012-12-04 04:53:00